| time (UTC) | temp F | wind direction | speed MPH | gust MPH | rain 1hr in | rain 24hr in | rain mn in | humidity % | barometer mb |
| 20260506211320 | 57 | 178 | 8.0 | 16.0 | 0.00 | 0.06 | 0.06 | 94 | 1009.6 |
| 20260506210818 | 57 | 91 | 2.0 | 15.0 | 0.00 | 0.06 | 0.06 | 94 | 1009.7 |
| 20260506210315 | 57 | 140 | 2.0 | 11.0 | 0.00 | 0.06 | 0.06 | 94 | 1009.6 |
| 20260506205812 | 57 | 170 | 5.0 | 11.0 | 0.00 | 0.06 | 0.06 | 94 | 1009.5 |
| 20260506205308 | 58 | 178 | 5.0 | 7.0 | 0.00 | 0.06 | 0.06 | 94 | 1009.9 |
| 20260506204804 | 58 | 175 | 9.0 | 13.0 | 0.00 | 0.06 | 0.06 | 94 | 1009.7 |
| 20260506204302 | 58 | 164 | 9.0 | 16.0 | 0.00 | 0.06 | 0.06 | 94 | 1009.9 |
| 20260506203800 | 58 | 256 | 4.0 | 4.0 | 0.00 | 0.06 | 0.06 | 94 | 1009.9 |
| 20260506203257 | 58 | 173 | 5.0 | 14.0 | 0.00 | 0.06 | 0.06 | 94 | 1009.6 |
| 20260506202754 | 57 | 116 | 4.0 | 21.0 | 0.00 | 0.06 | 0.06 | 94 | 1009.7 |
| 20260506202251 | 58 | 228 | 4.0 | 15.0 | 0.00 | 0.06 | 0.06 | 94 | 1010.0 |
| 20260506201747 | 58 | 154 | 6.0 | 14.0 | 0.00 | 0.06 | 0.06 | 94 | 1009.7 |
| 20260506201244 | 58 | 177 | 6.0 | 9.0 | 0.00 | 0.06 | 0.06 | 94 | 1009.8 |
| 20260506200741 | 58 | 167 | 13.0 | 15.0 | 0.00 | 0.06 | 0.06 | 94 | 1009.8 |
| 20260506200237 | 58 | 77 | 5.0 | 16.0 | 0.00 | 0.06 | 0.06 | 94 | 1010.1 |
| 20260506195733 | 58 | 124 | 4.0 | 14.0 | 0.00 | 0.06 | 0.06 | 94 | 1010.1 |
| 20260506195230 | 58 | 354 | 2.0 | 16.0 | 0.00 | 0.06 | 0.06 | 93 | 1010.0 |
| 20260506194728 | 58 | 307 | 3.0 | 10.0 | 0.00 | 0.06 | 0.06 | 93 | 1010.1 |
| 20260506194224 | 58 | 116 | 9.0 | 16.0 | 0.00 | 0.06 | 0.06 | 93 | 1010.2 |
| 20260506193722 | 58 | 169 | 9.0 | 11.0 | 0.05 | 0.06 | 0.06 | 93 | 1010.0 |
| 20260506193218 | 58 | 17 | 1.0 | 15.0 | 0.12 | 0.06 | 0.06 | 93 | 1010.1 |
| 20260506192716 | 58 | 107 | 10.0 | 14.0 | 0.07 | 0.05 | 0.05 | 92 | 1010.2 |
| 20260506192212 | 58 | 126 | 4.0 | 10.0 | 0.12 | 0.04 | 0.04 | 91 | 1010.3 |
| 20260506191709 | 58 | 191 | 4.0 | 13.0 | 0.07 | 0.03 | 0.03 | 90 | 1010.2 |
| 20260506191205 | 59 | 162 | 2.0 | 14.0 | 0.05 | 0.02 | 0.02 | 89 | 1010.4 |
| 20260506190703 | 59 | 167 | 8.0 | 11.0 | 0.05 | 0.02 | 0.02 | 89 | 1010.2 |
| 20260506190159 | 59 | 140 | 4.0 | 7.0 | 0.00 | 0.01 | 0.01 | 88 | 1010.2 |
| 20260506185656 | 59 | 222 | 8.0 | 14.0 | 0.07 | 0.01 | 0.01 | 87 | 1010.3 |
| 20260506185152 | 59 | 219 | 8.0 | 11.0 | 0.07 | 0.01 | 0.01 | 87 | 1010.4 |
| 20260506184650 | 59 | 348 | 6.0 | 18.0 | 0.00 | 0.00 | 0.00 | 85 | 1010.7 |
| 20260506184147 | 60 | 188 | 8.0 | 18.0 | 0.00 | 0.00 | 0.00 | 83 | 1010.7 |
| 20260506183643 | 60 | 237 | 9.0 | 22.0 | 0.00 | 0.00 | 0.00 | 81 | 1010.7 |
| 20260506183139 | 61 | 191 | 11.0 | 18.0 | 0.00 | 0.00 | 0.00 | 79 | 1010.8 |
| 20260506182637 | 62 | 212 | 11.0 | 19.0 | 0.00 | 0.00 | 0.00 | 76 | 1010.7 |
| 20260506182134 | 62 | 164 | 7.0 | 18.0 | 0.00 | 0.00 | 0.00 | 76 | 1010.8 |
| 20260506181632 | 62 | 175 | 8.0 | 13.0 | 0.00 | 0.00 | 0.00 | 74 | 1010.8 |
| 20260506181129 | 63 | 359 | 3.0 | 8.0 | 0.00 | 0.00 | 0.00 | 74 | 1011.0 |
| 20260506180625 | 63 | 104 | 6.0 | 19.0 | 0.00 | 0.00 | 0.00 | 73 | 1011.0 |
| 20260506180122 | 63 | 72 | 4.0 | 13.0 | 0.00 | 0.00 | 0.00 | 73 | 1011.2 |
| 20260506175618 | 63 | 250 | 7.0 | 18.0 | 0.00 | 0.00 | 0.00 | 73 | 1010.9 |
| 20260506175114 | 64 | 253 | 5.0 | 15.0 | 0.00 | 0.00 | 0.00 | 72 | 1011.0 |
| 20260506174613 | 64 | 202 | 5.0 | 8.0 | 0.00 | 0.00 | 0.00 | 71 | 1011.2 |
| 20260506174109 | 64 | 213 | 5.0 | 18.0 | 0.00 | 0.00 | 0.00 | 71 | 1011.1 |
| 20260506173607 | 64 | 149 | 6.0 | 13.0 | 0.00 | 0.00 | 0.00 | 70 | 1011.1 |
| 20260506173103 | 65 | 170 | 4.0 | 11.0 | 0.00 | 0.00 | 0.00 | 69 | 1011.0 |
| 20260506172601 | 65 | 242 | 11.0 | 18.0 | 0.00 | 0.00 | 0.00 | 69 | 1011.4 |
| 20260506172057 | 66 | 187 | 12.0 | 21.0 | 0.00 | 0.00 | 0.00 | 67 | 1011.6 |
| 20260506171555 | 65 | 135 | 12.0 | 16.0 | 0.00 | 0.00 | 0.00 | 68 | 1011.4 |
| 20260506171052 | 67 | 139 | 13.0 | 19.0 | 0.00 | 0.00 | 0.00 | 66 | 1011.7 |
| 20260506170550 | 67 | 357 | 7.0 | 17.0 | 0.00 | 0.00 | 0.00 | 65 | 1011.1 |
| 20260506170047 | 67 | 193 | 11.0 | 17.0 | 0.00 | 0.00 | 0.00 | 65 | 1011.5 |
| 20260506165545 | 66 | 15 | 2.0 | 8.0 | 0.00 | 0.00 | 0.00 | 68 | 1011.5 |
| 20260506165041 | 66 | 165 | 18.0 | 23.0 | 0.00 | 0.00 | 0.00 | 67 | 1011.4 |
| 20260506164538 | 66 | 164 | 4.0 | 9.0 | 0.00 | 0.00 | 0.00 | 67 | 1011.4 |
| 20260506164036 | 66 | 172 | 7.0 | 19.0 | 0.00 | 0.00 | 0.00 | 67 | 1011.5 |
| 20260506163532 | 66 | 188 | 3.0 | 21.0 | 0.00 | 0.00 | 0.00 | 68 | 1011.5 |
| 20260506163027 | 66 | 145 | 4.0 | 10.0 | 0.00 | 0.00 | 0.00 | 68 | 1011.7 |
| 20260506162524 | 66 | 171 | 4.0 | 10.0 | 0.00 | 0.00 | 0.00 | 67 | 1011.7 |
| 20260506162021 | 66 | 108 | 3.0 | 16.0 | 0.00 | 0.00 | 0.00 | 67 | 1011.8 |
| 20260506161518 | 67 | 199 | 18.0 | 24.0 | 0.00 | 0.00 | 0.00 | 65 | 1011.9 |
| 20260506161010 | 67 | 140 | 7.0 | 16.0 | 0.00 | 0.00 | 0.00 | 65 | 1012.0 |
| 20260506160508 | 68 | 189 | 9.0 | 14.0 | 0.00 | 0.00 | 0.00 | 64 | 1012.1 |
| 20260506160005 | 67 | 16 | 2.0 | 10.0 | 0.00 | 0.00 | 0.00 | 64 | 1011.8 |
| 20260506155503 | 68 | 116 | 7.0 | 13.0 | 0.00 | 0.00 | 0.00 | 64 | 1012.0 |
| 20260506153634 | 68 | 152 | 10.0 | 16.0 | 0.00 | 0.00 | 0.00 | 64 | 1012.3 |
| 20260506153131 | 68 | 148 | 5.0 | 11.0 | 0.00 | 0.00 | 0.00 | 64 | 1012.2 |
| 20260506152628 | 68 | 148 | 9.0 | 11.0 | 0.00 | 0.00 | 0.00 | 64 | 1012.2 |
| 20260506152126 | 67 | 189 | 7.0 | 21.0 | 0.00 | 0.00 | 0.00 | 64 | 1012.4 |
| 20260506151624 | 68 | 150 | 3.0 | 14.0 | 0.00 | 0.00 | 0.00 | 64 | 1012.4 |
| 20260506151121 | 68 | 118 | 6.0 | 15.0 | 0.00 | 0.00 | 0.00 | 64 | 1012.6 |
| 20260506150618 | 68 | 169 | 5.0 | 10.0 | 0.00 | 0.00 | 0.00 | 64 | 1012.3 |
| 20260506150115 | 68 | 135 | 4.0 | 8.0 | 0.00 | 0.00 | 0.00 | 63 | 1012.4 |
| 20260506145612 | 68 | 142 | 10.0 | 11.0 | 0.00 | 0.00 | 0.00 | 65 | 1012.2 |
| 20260506145108 | 67 | 204 | 4.0 | 13.0 | 0.00 | 0.00 | 0.00 | 66 | 1012.4 |
| 20260506144605 | 66 | 147 | 9.0 | 11.0 | 0.00 | 0.00 | 0.00 | 67 | 1012.4 |
| 20260506144102 | 66 | 194 | 4.0 | 10.0 | 0.00 | 0.00 | 0.00 | 68 | 1012.8 |
| 20260506143600 | 65 | 311 | 4.0 | 8.0 | 0.00 | 0.00 | 0.00 | 68 | 1012.6 |
| 20260506143058 | 65 | 169 | 9.0 | 16.0 | 0.00 | 0.00 | 0.00 | 68 | 1012.6 |
| 20260506142555 | 65 | 172 | 5.0 | 8.0 | 0.00 | 0.00 | 0.00 | 69 | 1012.5 |
| 20260506142054 | 65 | 169 | 6.0 | 10.0 | 0.00 | 0.00 | 0.00 | 69 | 1012.5 |
| 20260506141551 | 65 | 152 | 10.0 | 13.0 | 0.00 | 0.00 | 0.00 | 69 | 1012.4 |
| 20260506141049 | 65 | 177 | 5.0 | 15.0 | 0.00 | 0.00 | 0.00 | 69 | 1012.4 |
| 20260506140546 | 65 | 240 | 9.0 | 14.0 | 0.00 | 0.00 | 0.00 | 70 | 1012.5 |
| 20260506140044 | 65 | 97 | 6.0 | 15.0 | 0.00 | 0.00 | 0.00 | 69 | 1012.5 |
| 20260506135540 | 64 | 190 | 6.0 | 10.0 | 0.00 | 0.00 | 0.00 | 69 | 1012.8 |
| 20260506135036 | 65 | 225 | 7.0 | 17.0 | 0.00 | 0.00 | 0.00 | 69 | 1012.4 |
| 20260506134533 | 65 | 135 | 9.0 | 13.0 | 0.00 | 0.00 | 0.00 | 69 | 1012.5 |
| 20260506134029 | 65 | 151 | 6.0 | 10.0 | 0.00 | 0.00 | 0.00 | 68 | 1012.4 |
| 20260506133526 | 65 | 311 | 6.0 | 8.0 | 0.00 | 0.00 | 0.00 | 70 | 1012.5 |
| 20260506133023 | 64 | 106 | 5.0 | 22.0 | 0.00 | 0.00 | 0.00 | 70 | 1012.3 |
| 20260506132520 | 64 | 209 | 7.0 | 10.0 | 0.00 | 0.00 | 0.00 | 71 | 1012.9 |
| 20260506132018 | 64 | 161 | 15.0 | 22.0 | 0.00 | 0.00 | 0.00 | 71 | 1012.8 |
| 20260506131515 | 64 | 227 | 7.0 | 16.0 | 0.00 | 0.00 | 0.00 | 71 | 1013.0 |
| 20260506131011 | 64 | 209 | 7.0 | 16.0 | 0.00 | 0.00 | 0.00 | 72 | 1012.9 |
| 20260506130508 | 64 | 128 | 2.0 | 9.0 | 0.00 | 0.00 | 0.00 | 74 | 1013.0 |
| 20260506130006 | 63 | 168 | 6.0 | 9.0 | 0.00 | 0.00 | 0.00 | 74 | 1013.2 |
| 20260506125504 | 62 | 214 | 5.0 | 14.0 | 0.00 | 0.00 | 0.00 | 76 | 1012.9 |
| 20260506125001 | 62 | 156 | 3.0 | 10.0 | 0.00 | 0.00 | 0.00 | 77 | 1012.9 |
| 20260506124459 | 62 | 163 | 3.0 | 18.0 | 0.00 | 0.00 | 0.00 | 77 | 1013.1 |
| 20260506123957 | 62 | 192 | 12.0 | 14.0 | 0.00 | 0.00 | 0.00 | 77 | 1013.2 |
| 20260506123454 | 61 | 33 | 2.0 | 13.0 | 0.00 | 0.00 | 0.00 | 79 | 1013.1 |
| 20260506122952 | 61 | 138 | 4.0 | 9.0 | 0.00 | 0.00 | 0.00 | 79 | 1013.0 |
| 20260506122448 | 61 | 154 | 11.0 | 16.0 | 0.00 | 0.00 | 0.00 | 79 | 1013.0 |
| 20260506121947 | 60 | 266 | 11.0 | 16.0 | 0.00 | 0.00 | 0.00 | 80 | 1012.8 |
| 20260506121443 | 60 | 159 | 12.0 | 16.0 | 0.00 | 0.00 | 0.00 | 81 | 1012.8 |
| 20260506120940 | 60 | 183 | 11.0 | 21.0 | 0.00 | 0.00 | 0.00 | 80 | 1012.9 |
| 20260506120438 | 60 | 127 | 3.0 | 11.0 | 0.00 | 0.00 | 0.00 | 81 | 1012.9 |
| 20260506115935 | 59 | 197 | 10.0 | 17.0 | 0.00 | 0.00 | 0.00 | 82 | 1013.0 |
| 20260506115433 | 60 | 174 | 15.0 | 19.0 | 0.00 | 0.00 | 0.00 | 82 | 1012.9 |
| 20260506114931 | 59 | 151 | 4.0 | 6.0 | 0.00 | 0.00 | 0.00 | 83 | 1013.3 |
| 20260506114428 | 59 | 273 | 8.0 | 14.0 | 0.00 | 0.00 | 0.00 | 85 | 1013.3 |
| 20260506113927 | 58 | 40 | 1.0 | 13.0 | 0.00 | 0.00 | 0.00 | 86 | 1013.2 |
| 20260506113424 | 58 | 183 | 10.0 | 13.0 | 0.00 | 0.00 | 0.00 | 87 | 1013.4 |
| 20260506112920 | 58 | 177 | 4.0 | 10.0 | 0.00 | 0.00 | 0.00 | 86 | 1013.4 |
| 20260506112418 | 58 | 149 | 6.0 | 11.0 | 0.00 | 0.00 | 0.00 | 86 | 1013.3 |
| 20260506111915 | 58 | 271 | 5.0 | 11.0 | 0.00 | 0.00 | 0.00 | 86 | 1013.1 |
| 20260506111413 | 58 | 185 | 8.0 | 13.0 | 0.00 | 0.00 | 0.00 | 87 | 1013.6 |
| 20260506110910 | 58 | 257 | 6.0 | 15.0 | 0.00 | 0.00 | 0.00 | 87 | 1013.3 |
| 20260506110408 | 58 | 142 | 10.0 | 14.0 | 0.00 | 0.00 | 0.00 | 87 | 1013.3 |
| 20260506105904 | 58 | 193 | 2.0 | 4.0 | 0.00 | 0.00 | 0.00 | 87 | 1013.1 |
| 20260506105400 | 57 | 230 | 3.0 | 21.0 | 0.00 | 0.00 | 0.00 | 88 | 1012.9 |
| 20260506104858 | 57 | 354 | 3.0 | 10.0 | 0.00 | 0.00 | 0.00 | 88 | 1013.2 |
| 20260506104356 | 57 | 28 | 2.0 | 13.0 | 0.00 | 0.00 | 0.00 | 88 | 1013.1 |
| 20260506103853 | 57 | 113 | 4.0 | 7.0 | 0.00 | 0.00 | 0.00 | 88 | 1013.2 |
| 20260506103351 | 57 | 175 | 4.0 | 10.0 | 0.00 | 0.00 | 0.00 | 88 | 1013.3 |
| 20260506102848 | 57 | 144 | 5.0 | 8.0 | 0.00 | 0.00 | 0.00 | 88 | 1013.2 |
| 20260506102346 | 57 | 63 | 3.0 | 13.0 | 0.00 | 0.00 | 0.00 | 88 | 1013.1 |
| 20260506101843 | 57 | 37 | 6.0 | 14.0 | 0.00 | 0.00 | 0.00 | 88 | 1013.2 |
| 20260506101338 | 57 | 245 | 6.0 | 11.0 | 0.00 | 0.00 | 0.00 | 88 | 1013.1 |
| 20260506100837 | 57 | 155 | 6.0 | 8.0 | 0.00 | 0.00 | 0.00 | 88 | 1013.2 |
| 20260506100335 | 56 | 73 | 2.0 | 6.0 | 0.00 | 0.00 | 0.00 | 88 | 1013.2 |
| 20260506095833 | 57 | 87 | 2.0 | 7.0 | 0.00 | 0.00 | 0.00 | 88 | 1013.1 |
| 20260506095330 | 57 | 118 | 5.0 | 14.0 | 0.00 | 0.00 | 0.00 | 88 | 1013.0 |
| 20260506094826 | 57 | 142 | 2.0 | 11.0 | 0.00 | 0.00 | 0.00 | 88 | 1013.0 |
| 20260506094325 | 57 | 224 | 4.0 | 7.0 | 0.00 | 0.00 | 0.00 | 88 | 1013.0 |
| 20260506093823 | 56 | 93 | 3.0 | 7.0 | 0.00 | 0.00 | 0.00 | 87 | 1013.2 |
| 20260506093320 | 57 | 158 | 11.0 | 13.0 | 0.00 | 0.00 | 0.00 | 87 | 1013.0 |
| 20260506092818 | 57 | 269 | 9.0 | 13.0 | 0.00 | 0.00 | 0.00 | 87 | 1012.9 |
| 20260506092315 | 57 | 197 | 6.0 | 9.0 | 0.00 | 0.00 | 0.00 | 87 | 1013.1 |
| 20260506091812 | 57 | 65 | 2.0 | 8.0 | 0.00 | 0.00 | 0.00 | 87 | 1013.1 |
| 20260506091310 | 57 | 44 | 2.0 | 9.0 | 0.00 | 0.00 | 0.00 | 87 | 1013.1 |
| 20260506090807 | 57 | 308 | 4.0 | 10.0 | 0.00 | 0.00 | 0.00 | 87 | 1013.4 |
| 20260506090304 | 57 | 158 | 7.0 | 15.0 | 0.00 | 0.00 | 0.00 | 87 | 1013.2 |
| 20260506085801 | 57 | 179 | 7.0 | 11.0 | 0.00 | 0.00 | 0.00 | 87 | 1013.3 |
| 20260506085257 | 57 | 141 | 9.0 | 13.0 | 0.00 | 0.00 | 0.00 | 86 | 1013.2 |
| 20260506084754 | 57 | 154 | 4.0 | 8.0 | 0.00 | 0.00 | 0.00 | 86 | 1013.3 |
| 20260506084250 | 57 | 181 | 7.0 | 13.0 | 0.00 | 0.00 | 0.00 | 86 | 1013.3 |
| 20260506083747 | 57 | 181 | 8.0 | 11.0 | 0.00 | 0.00 | 0.00 | 86 | 1013.4 |
| 20260506083245 | 57 | 169 | 4.0 | 13.0 | 0.00 | 0.00 | 0.00 | 86 | 1013.4 |
| 20260506082742 | 57 | 119 | 6.0 | 9.0 | 0.00 | 0.00 | 0.00 | 85 | 1013.3 |
| 20260506082237 | 57 | 206 | 12.0 | 15.0 | 0.00 | 0.00 | 0.00 | 85 | 1013.5 |
| 20260506081736 | 57 | 192 | 5.0 | 13.0 | 0.00 | 0.00 | 0.00 | 85 | 1013.3 |
| 20260506081233 | 57 | 261 | 7.0 | 14.0 | 0.00 | 0.00 | 0.00 | 85 | 1013.4 |
| 20260506080731 | 57 | 260 | 5.0 | 16.0 | 0.00 | 0.00 | 0.00 | 84 | 1013.4 |
| 20260506080227 | 58 | 130 | 6.0 | 9.0 | 0.00 | 0.00 | 0.00 | 84 | 1013.5 |
| 20260506073211 | 58 | 333 | 2.0 | 13.0 | 0.00 | 0.00 | 0.00 | 83 | 1013.4 |
| 20260506072708 | 58 | 188 | 9.0 | 13.0 | 0.00 | 0.00 | 0.00 | 83 | 1013.3 |
| 20260506072205 | 58 | 153 | 11.0 | 14.0 | 0.00 | 0.00 | 0.00 | 83 | 1013.3 |
| 20260506071702 | 58 | 159 | 6.0 | 16.0 | 0.00 | 0.00 | 0.00 | 83 | 1013.3 |
| 20260506071200 | 58 | 143 | 14.0 | 18.0 | 0.00 | 0.00 | 0.00 | 82 | 1013.1 |
| 20260506070657 | 58 | 327 | 8.0 | 15.0 | 0.00 | 0.00 | 0.00 | 83 | 1013.3 |
| 20260506070154 | 58 | 358 | 5.0 | 15.0 | 0.00 | 0.00 | 0.00 | 82 | 1013.1 |
| 20260506062131 | 59 | 182 | 7.0 | 13.0 | 0.00 | 0.00 | 0.00 | 80 | 1013.2 |
| 20260506061627 | 59 | 192 | 8.0 | 19.0 | 0.00 | 0.00 | 0.00 | 80 | 1013.1 |
| 20260506061125 | 59 | 46 | 14.0 | 21.0 | 0.00 | 0.00 | 0.00 | 80 | 1013.2 |
| 20260506060623 | 59 | 182 | 6.0 | 9.0 | 0.00 | 0.00 | 0.00 | 79 | 1013.2 |
| 20260506060120 | 59 | 139 | 11.0 | 15.0 | 0.00 | 0.00 | 0.00 | 79 | 1013.4 |
| 20260506051052 | 60 | 197 | 9.0 | 15.0 | 0.00 | 0.00 | 0.00 | 75 | 1013.6 |
| 20260506050550 | 60 | 171 | 8.0 | 16.0 | 0.00 | 0.00 | 0.00 | 74 | 1013.4 |
| 20260506045040 | 60 | 151 | 17.0 | 27.0 | 0.00 | 0.00 | 0.00 | 73 | 1013.7 |
| 20260506044538 | 60 | 145 | 7.0 | 10.0 | 0.00 | 0.00 | 0.00 | 73 | 1013.7 |
| 20260506044035 | 61 | 301 | 4.0 | 10.0 | 0.00 | 0.00 | 0.00 | 72 | 1013.7 |
| 20260506043532 | 61 | 284 | 5.0 | 11.0 | 0.00 | 0.00 | 0.00 | 72 | 1013.8 |
| 20260506043030 | 61 | 150 | 9.0 | 13.0 | 0.00 | 0.00 | 0.00 | 71 | 1013.9 |
| 20260506042529 | 61 | 169 | 7.0 | 26.0 | 0.00 | 0.00 | 0.00 | 71 | 1013.9 |
| 20260506042027 | 61 | 225 | 7.0 | 9.0 | 0.00 | 0.00 | 0.00 | 71 | 1013.6 |
| 20260506041525 | 61 | 179 | 10.0 | 17.0 | 0.00 | 0.00 | 0.00 | 71 | 1013.8 |
| 20260506041021 | 61 | 248 | 5.0 | 11.0 | 0.00 | 0.00 | 0.00 | 70 | 1013.6 |
| 20260506040519 | 61 | 290 | 10.0 | 16.0 | 0.00 | 0.00 | 0.00 | 70 | 1013.5 |
| 20260506040015 | 61 | 179 | 6.0 | 21.0 | 0.00 | 0.00 | 0.00 | 70 | 1013.6 |
| 20260506035512 | 61 | 171 | 9.0 | 13.0 | 0.00 | 0.00 | 0.00 | 69 | 1013.9 |
| 20260506035008 | 61 | 208 | 7.0 | 10.0 | 0.00 | 0.00 | 0.00 | 69 | 1013.9 |
| 20260506034506 | 61 | 124 | 11.0 | 15.0 | 0.00 | 0.00 | 0.00 | 68 | 1013.8 |
| 20260506034003 | 61 | 120 | 7.0 | 15.0 | 0.00 | 0.00 | 0.00 | 68 | 1013.4 |
| 20260506033500 | 61 | 162 | 8.0 | 15.0 | 0.00 | 0.00 | 0.00 | 68 | 1013.5 |
| 20260506032957 | 61 | 71 | 9.0 | 15.0 | 0.00 | 0.00 | 0.00 | 68 | 1013.5 |
| 20260506032455 | 61 | 208 | 7.0 | 11.0 | 0.00 | 0.00 | 0.00 | 68 | 1013.8 |
| 20260506031950 | 61 | 262 | 11.0 | 19.0 | 0.00 | 0.00 | 0.00 | 68 | 1013.4 |
| 20260506031448 | 61 | 197 | 9.0 | 14.0 | 0.00 | 0.00 | 0.00 | 68 | 1013.3 |
| 20260506030946 | 61 | 231 | 15.0 | 19.0 | 0.00 | 0.00 | 0.00 | 68 | 1013.5 |
| 20260506030444 | 61 | 234 | 6.0 | 15.0 | 0.00 | 0.00 | 0.00 | 68 | 1013.4 |
| 20260506025940 | 61 | 174 | 7.0 | 18.0 | 0.00 | 0.00 | 0.00 | 68 | 1013.6 |
| 20260506025437 | 61 | 344 | 6.0 | 13.0 | 0.00 | 0.00 | 0.00 | 68 | 1013.4 |
| 20260506024934 | 61 | 345 | 4.0 | 17.0 | 0.00 | 0.00 | 0.00 | 68 | 1013.4 |
| 20260506024431 | 61 | 255 | 12.0 | 15.0 | 0.00 | 0.00 | 0.00 | 68 | 1013.4 |
| 20260506023926 | 61 | 186 | 5.0 | 9.0 | 0.00 | 0.00 | 0.00 | 68 | 1013.6 |
| 20260506023424 | 61 | 175 | 6.0 | 14.0 | 0.00 | 0.00 | 0.00 | 68 | 1013.4 |
| 20260506022920 | 60 | 34 | 5.0 | 10.0 | 0.00 | 0.00 | 0.00 | 68 | 1013.6 |
| 20260506022418 | 60 | 194 | 7.0 | 10.0 | 0.00 | 0.00 | 0.00 | 69 | 1013.4 |
| 20260506021916 | 60 | 12 | 2.0 | 19.0 | 0.00 | 0.00 | 0.00 | 69 | 1013.5 |
| 20260506021413 | 60 | 284 | 11.0 | 15.0 | 0.00 | 0.00 | 0.00 | 69 | 1013.2 |
| 20260506020909 | 60 | 196 | 8.0 | 14.0 | 0.00 | 0.00 | 0.00 | 69 | 1013.6 |
| 20260506020408 | 60 | 337 | 5.0 | 11.0 | 0.00 | 0.00 | 0.00 | 69 | 1013.4 |
| 20260506015904 | 60 | 163 | 5.0 | 14.0 | 0.00 | 0.00 | 0.00 | 69 | 1013.3 |
| 20260506015402 | 60 | 104 | 6.0 | 15.0 | 0.00 | 0.00 | 0.00 | 69 | 1013.3 |
| 20260506014859 | 60 | 166 | 7.0 | 11.0 | 0.00 | 0.00 | 0.00 | 69 | 1013.2 |
| 20260506014355 | 60 | 196 | 8.0 | 15.0 | 0.00 | 0.00 | 0.00 | 69 | 1013.4 |
| 20260506013852 | 60 | 211 | 8.0 | 10.0 | 0.00 | 0.00 | 0.00 | 69 | 1013.3 |
| 20260506013350 | 60 | 202 | 6.0 | 15.0 | 0.00 | 0.00 | 0.00 | 69 | 1013.2 |
| 20260506012846 | 60 | 160 | 7.0 | 10.0 | 0.00 | 0.00 | 0.00 | 69 | 1013.3 |
| 20260506012343 | 60 | 190 | 9.0 | 17.0 | 0.00 | 0.00 | 0.00 | 69 | 1013.4 |
| 20260506011840 | 60 | 175 | 8.0 | 15.0 | 0.00 | 0.00 | 0.00 | 69 | 1013.2 |
| 20260506011337 | 60 | 136 | 7.0 | 15.0 | 0.00 | 0.00 | 0.00 | 69 | 1013.3 |
| 20260506010834 | 60 | 309 | 6.0 | 11.0 | 0.00 | 0.00 | 0.00 | 69 | 1013.3 |
| 20260506010332 | 60 | 216 | 2.0 | 15.0 | 0.00 | 0.00 | 0.00 | 68 | 1012.8 |
| 20260506005829 | 60 | 249 | 7.0 | 18.0 | 0.00 | 0.00 | 0.00 | 68 | 1013.0 |
| 20260506005326 | 60 | 97 | 2.0 | 8.0 | 0.00 | 0.00 | 0.00 | 68 | 1013.0 |
| 20260506004821 | 60 | 287 | 6.0 | 18.0 | 0.00 | 0.00 | 0.00 | 67 | 1013.0 |
| 20260506004319 | 60 | 192 | 12.0 | 17.0 | 0.00 | 0.00 | 0.00 | 68 | 1012.9 |
| 20260506003815 | 60 | 231 | 5.0 | 15.0 | 0.00 | 0.00 | 0.00 | 67 | 1012.9 |
| 20260506003312 | 60 | 10 | 4.0 | 10.0 | 0.00 | 0.00 | 0.00 | 67 | 1012.5 |
| 20260506002808 | 61 | 192 | 9.0 | 14.0 | 0.00 | 0.00 | 0.00 | 66 | 1012.5 |
| 20260506002306 | 61 | 306 | 6.0 | 8.0 | 0.00 | 0.00 | 0.00 | 66 | 1012.4 |
| 20260506001800 | 61 | 196 | 13.0 | 16.0 | 0.00 | 0.00 | 0.00 | 66 | 1012.2 |
| 20260506001258 | 61 | 127 | 7.0 | 15.0 | 0.00 | 0.00 | 0.00 | 65 | 1012.4 |
| 20260506000754 | 61 | 37 | 7.0 | 13.0 | 0.00 | 0.00 | 0.00 | 66 | 1012.4 |
| 20260506000254 | 61 | 253 | 9.0 | 15.0 | 0.00 | 0.00 | 0.00 | 65 | 1012.3 |
| 20260505235749 | 62 | 143 | 9.0 | 16.0 | 0.00 | 0.00 | 0.00 | 65 | 1012.2 |
| 20260505235247 | 62 | 316 | 7.0 | 10.0 | 0.00 | 0.00 | 0.00 | 65 | 1011.9 |
| 20260505234743 | 62 | 279 | 4.0 | 11.0 | 0.00 | 0.00 | 0.00 | 64 | 1011.9 |
| 20260505234241 | 62 | 209 | 11.0 | 17.0 | 0.00 | 0.00 | 0.00 | 63 | 1011.8 |
| 20260505233737 | 63 | 147 | 5.0 | 15.0 | 0.00 | 0.00 | 0.00 | 63 | 1011.8 |
| 20260505233236 | 63 | 212 | 7.0 | 11.0 | 0.00 | 0.00 | 0.00 | 62 | 1011.7 |
| 20260505232732 | 63 | 193 | 7.0 | 21.0 | 0.00 | 0.00 | 0.00 | 62 | 1011.6 |
| 20260505232230 | 64 | 190 | 4.0 | 16.0 | 0.00 | 0.00 | 0.00 | 61 | 1011.5 |
| 20260505231726 | 64 | 38 | 2.0 | 14.0 | 0.00 | 0.00 | 0.00 | 61 | 1011.8 |
| 20260505231225 | 64 | 156 | 2.0 | 15.0 | 0.00 | 0.00 | 0.00 | 60 | 1011.4 |
| 20260505230723 | 65 | 188 | 10.0 | 15.0 | 0.00 | 0.00 | 0.00 | 59 | 1011.2 |
| 20260505230219 | 65 | 190 | 5.0 | 15.0 | 0.00 | 0.00 | 0.00 | 59 | 1011.0 |
| 20260505225716 | 66 | 226 | 15.0 | 18.0 | 0.00 | 0.00 | 0.00 | 58 | 1011.2 |
| 20260505225213 | 66 | 179 | 11.0 | 15.0 | 0.00 | 0.00 | 0.00 | 58 | 1011.0 |
| 20260505224708 | 66 | 183 | 8.0 | 16.0 | 0.00 | 0.00 | 0.00 | 57 | 1010.6 |
| 20260505224206 | 67 | 199 | 6.0 | 14.0 | 0.00 | 0.00 | 0.00 | 57 | 1010.8 |
| 20260505223703 | 67 | 197 | 10.0 | 16.0 | 0.00 | 0.00 | 0.00 | 56 | 1011.0 |
| 20260505223159 | 67 | 142 | 6.0 | 16.0 | 0.00 | 0.00 | 0.00 | 55 | 1011.1 |
| 20260505222655 | 68 | 255 | 11.0 | 18.0 | 0.00 | 0.00 | 0.00 | 53 | 1010.9 |
| 20260505222152 | 68 | 175 | 15.0 | 23.0 | 0.00 | 0.00 | 0.00 | 52 | 1011.1 |
| 20260505221649 | 69 | 198 | 13.0 | 15.0 | 0.00 | 0.00 | 0.00 | 51 | 1010.9 |
| 20260505221145 | 70 | 205 | 12.0 | 15.0 | 0.00 | 0.00 | 0.00 | 49 | 1010.9 |
| 20260505220643 | 70 | 158 | 6.0 | 14.0 | 0.00 | 0.00 | 0.00 | 49 | 1011.0 |
| 20260505220141 | 70 | 190 | 10.0 | 15.0 | 0.00 | 0.00 | 0.00 | 49 | 1011.0 |
| 20260505215638 | 70 | 190 | 2.0 | 17.0 | 0.00 | 0.00 | 0.00 | 50 | 1010.9 |
| 20260505215136 | 70 | 236 | 8.0 | 15.0 | 0.00 | 0.00 | 0.00 | 49 | 1010.7 |
| 20260505214634 | 71 | 160 | 9.0 | 15.0 | 0.00 | 0.00 | 0.00 | 49 | 1011.0 |
| 20260505214130 | 71 | 154 | 4.0 | 13.0 | 0.00 | 0.00 | 0.00 | 50 | 1010.7 |
| 20260505213628 | 71 | 113 | 7.0 | 15.0 | 0.00 | 0.00 | 0.00 | 48 | 1010.9 |
| 20260505213124 | 72 | 165 | 9.0 | 13.0 | 0.00 | 0.00 | 0.00 | 48 | 1010.6 |
| 20260505212620 | 72 | 214 | 9.0 | 14.0 | 0.00 | 0.00 | 0.00 | 48 | 1010.5 |
| 20260505212119 | 72 | 33 | 3.0 | 10.0 | 0.00 | 0.00 | 0.00 | 49 | 1010.6 |